LFMPLFMK

Guest
Details From LFMP - Rivesaltes
To LFMK - Salvaza
Flight Number -
Tags generated
Created
Modified
Stats Distance 38 nm / 70 km
Max Altitude 200 ft / 61 m
Waypoints 3
Social Downloads 3
Likes 0
Share VATSIM

Download

Looking for another format? Having issues loading an existing format? Contact us
Advertisement - Login to hide

Notes

Basic altitude profile: - Ascent Rate: 2500ft/min - Ascent Speed: 250kts - Cruise Altitude: 35000ft - Cruise Speed: 420kts - Descent Rate: 1500ft/min - Descent Speed: 250kts

Route

LFMP PPG LFMK

ID Type Via Altitude Latitude Longitude Leg Dist Tot Dist Heading (true) Name
O LFMP APT - 0 ft / 0 m 42.74049˚ 2.87059˚ - 0 nm - Rivesaltes
PPG VOR - 200 ft / 61 m 42.75047˚ 2.86714˚ 0 nm 0 nm 346° / 346° PERPIGNAN RIVESALTES VOR-DME
O LFMK APT - 0 ft / 0 m 43.21612˚ 2.30550˚ 37 nm 37 nm 319° / 318° Salvaza

Altitude Profile

Advertisement - Login to hide

LFMP

Details ICAO LFMP (PGF)
Name Rivesaltes
Region France
Timezone Europe/Paris (UTC+2.0)
Stats Elevation 143 ft / 44 m (AMSL)
Location 42.740488° 2.870594°
Runways 2
Magnetic Variation 1.041° E

METAR

LFMP 221230Z AUTO 15006KT 110V190 9999 FEW041 BKN060 BKN076 23/14 Q1013

Decode

TAF

Not found

Departure Runways

ID Width Length Bearing (true) Bearing (mag) Surface Threshold Offset Overrun Length
13 66 ft / 20 m 4,231 ft / 1,290 m 127.54° 126.50° Asphalt 492 ft / 150 m 0 ft / 0 m
15 148 ft / 45 m 8,189 ft / 2,496 m 148.38° 147.34° Asphalt 0 ft / 0 m 230 ft / 70 m
31 66 ft / 20 m 4,231 ft / 1,290 m 307.55° 306.51° Asphalt 1,148 ft / 350 m 0 ft / 0 m
33 148 ft / 45 m 8,189 ft / 2,496 m 328.39° 327.35° Asphalt 558 ft / 170 m 230 ft / 70 m

LFMK

Details ICAO LFMK (CCF)
Name Salvaza
Region France
Timezone Europe/Paris (UTC+2.0)
Stats Elevation 433 ft / 132 m (AMSL)
Location 43.216122° 2.305496°
Runways 1
Magnetic Variation 0.887° E

METAR

LFMK 221230Z AUTO 30012KT 9999 FEW037 22/14 Q1014

Decode

TAF

Not found

Destination Runways

ID Width Length Bearing (true) Bearing (mag) Surface Threshold Offset Overrun Length
10 148 ft / 45 m 6,869 ft / 2,094 m 96.20° 95.31° Asphalt 479 ft / 146 m 0 ft / 0 m
28 148 ft / 45 m 6,869 ft / 2,094 m 276.22° 275.33° Asphalt 492 ft / 150 m 0 ft / 0 m

Approach Navaids

Runway Type Ident Frequency Range Bearing (true) Bearing (mag) Slope Elevation
10 Localiser CS 111.10 MHz 27 nm / 50 km 96.29° 95.40° - 433 ft / 132 m (AMSL)
10 Glidescope CS 111.10 MHz 27 nm / 50 km 96.29° 95.40° 3.00° 433 ft / 132 m (AMSL)
10 DME CS 111.10 MHz 27 nm / 50 km - - - 433 ft / 132 m (AMSL)

Popular Alternatives